map of CMF home
CMF - Airport
Location
City:  Chambéry, Rhône-Alpes, France
Name:Chambéry Savoie Mont Blanc Airport
Old (Alt.):Aix-lès-Bains Airport
ICAO:LFLB
IATA:CMF

Details
Type:Airport (Aerodrome, Airfield)
Use:Public/Civil
Latitude:45°38'21"N (45.639167)
Longitude:5°52'48"E (5.880000)
Elevation:779 ft (237 m)
Variation:1.74°E (WMM2015 magnetic declination)
0.12° annual change
Runways:2
Longest:6627 × 148 ft (2020 × 45 m), paved

Time
Time Zone:UTC+1 (DST+2)
Local Time:

Weather
METAR:LFLB 240730Z AUTO 18006KT 140V230 CAVOK 17/13 Q1019 NOSIG
TAF:LFLB 240500Z 2406/2506 VRB02KT CAVOK
TEMPO 2406/2407 6000 BKN004
TEMPO 2412/2419 FEW050CB PROB30
TEMPO 2503/2506 3000 BR BKN004

Related Locations
Nearby:
Farthest:CHT: 12263 mi / 19736 km
Waitangi [Tuuta], CIT, NZ

Find:

   beyond  
but within

Other Information
Maps:
NOTAMs:
Links:
Sources:

  
flag of France
flag of Rhône-Alpes
  

Sectional Chart

Flight Planning
at skyvector.com

Satellite Image

Google Maps Satellite view

 

Copyright © 2004-2018 Karl L. Swartz. All rights reserved.
The Great Circle Mapper name and logo are trademarks of the Great Circle Mapper.
All other trademarks mentioned herein belong to their respective owners.
Please see credits for attibutions and further copyright information.

  Follow gcmap on Facebook Follow gcmap on Twitter Follow gcmap on Google+ GCmap on LinkedIn

hCard Microformat

Geo Microformat